Starlink 11572

operational
NORAD ID: 62990 Int'l Des: 2025-031 Owner: SPXS Country: US Constellation: starlink
LEOCIRCULAR

About Starlink 11572

Description loading...

Live Position

Loading 3D Globe...

Upcoming Passes

Altitude History

Altitude vs Time

uPlot chart will show altitude changes over time

Two-Line Element Set

1 62990U 25031K 25258.25874025 .00414471 00000-0 30590-2 0 9992
2 62990 42.9989 338.7211 0001770 255.8261 104.2410 15.70966101 35150
Epoch: Sep 15, 2025 • Age: 14 hours

Current Status

Altitude 357.9 km
Velocity 7.70 km/s
Sub-Earth Point -16.46°S, 24.35°E
Launch Date Feb 11, 2025
Age 0.5 years
Type internet

Technical Details

Classification Payload
Mass 960.00 kg
Dry Mass 910.00 kg
Total Mass 960.00 kg
Length 0.30 m
Diameter 4.10 m
Span 29.00 m
Shape Box + pan
Manufacturer SPXS
Bus Type Starlink V2MD
Phase Status In Orbit
Owner/State SPXS/US

Large Constellations

Loading constellations...